time, Switch, Flow(0), Analog(2)
yyyy/mm/dd HH:MM:SS.fff, True=FILTERED|False=TOTAL, L/min, V
2023/06/27 14:00:03.346, True, 4.643, 0.124819
2023/06/27 14:00:03.842, True, 4.043, 0.124819
2023/06/27 14:00:04.346, True, 2.984, 0.126421
2023/06/27 14:00:04.850, True, 2.321, 0.126040
2023/06/27 14:00:05.346, True, 2.359, 0.125811
2023/06/27 14:00:05.850, True, 1.990, 0.126345
2023/06/27 14:00:06.353, True, 1.990, 0.124056
2023/06/27 14:00:06.850, True, 2.022, 0.126879
2023/06/27 14:00:07.354, True, 2.321, 0.125048
2023/06/27 14:00:07.850, True, 1.685, 0.125658
2023/06/27 14:00:08.354, True, 1.990, 0.124056
2023/06/27 14:00:08.858, True, 1.990, 0.124743
2023/06/27 14:00:09.354, True, 2.021, 0.124132
2023/06/27 14:00:09.858, True, 1.990, 0.123980
2023/06/27 14:00:10.362, True, 1.990, 0.127031
2023/06/27 14:00:10.858, True, 2.022, 0.124208
2023/06/27 14:00:11.362, True, 1.990, 0.125658
2023/06/27 14:00:11.866, True, 1.658, 0.126345
2023/06/27 14:00:12.362, True, 2.025, 0.124819
2023/06/27 14:00:12.866, True, 1.655, 0.123674
2023/06/27 14:00:13.370, True, 1.990, 0.123598
2023/06/27 14:00:13.874, True, 1.990, 0.123751
2023/06/27 14:00:14.370, True, 2.023, 0.125429
2023/06/27 14:00:14.874, True, 1.991, 0.125429
2023/06/27 14:00:15.370, True, 2.019, 0.126268
2023/06/27 14:00:15.874, True, 1.990, 0.123903
2023/06/27 14:00:16.378, True, 1.990, 0.124895
2023/06/27 14:00:16.882, True, 1.992, 0.125277
2023/06/27 14:00:17.378, True, 1.682, 0.124819
2023/06/27 14:00:17.882, True, 1.990, 0.122301
2023/06/27 14:00:18.378, True, 1.685, 0.125353
2023/06/27 14:00:18.882, True, 1.990, 0.126574
2023/06/27 14:00:19.386, True, 1.658, 0.125734
2023/06/27 14:00:19.882, True, 2.022, 0.124819
2023/06/27 14:00:20.386, True, 1.990, 0.125124
2023/06/27 14:00:20.890, True, 1.990, 0.123369
2023/06/27 14:00:21.394, True, 1.990, 0.124666
2023/06/27 14:00:21.890, True, 2.021, 0.123369
2023/06/27 14:00:22.394, True, 1.990, 0.122683
2023/06/27 14:00:22.890, True, 2.359, 0.126040
2023/06/27 14:00:23.394, True, 1.989, 0.126421
2023/06/27 14:00:23.898, True, 1.990, 0.127565
2023/06/27 14:00:24.402, True, 1.990, 0.123903
2023/06/27 14:00:24.898, True, 2.022, 0.125582
2023/06/27 14:00:25.402, True, 1.990, 0.127337
2023/06/27 14:00:25.906, True, 1.990, 0.125200
2023/06/27 14:00:26.402, True, 1.685, 0.126802
2023/06/27 14:00:26.906, True, 1.990, 0.125048
2023/06/27 14:00:27.402, True, 1.685, 0.126040
2023/06/27 14:00:27.906, True, 1.989, 0.125124
2023/06/27 14:00:28.410, True, 1.658, 0.124132
2023/06/27 14:00:28.906, True, 2.022, 0.123445
2023/06/27 14:00:29.410, True, 1.658, 0.126650
2023/06/27 14:00:29.914, True, 1.990, 0.127413
2023/06/27 14:00:30.409, True, 2.022, 0.125277
2023/06/27 14:00:30.914, True, 1.990, 0.124819
2023/06/27 14:00:31.418, True, 1.990, 0.122759
2023/06/27 14:00:31.922, True, 1.990, 0.127108
2023/06/27 14:00:32.418, True, 2.022, 0.124971
2023/06/27 14:00:32.922, True, 1.989, 0.123903
2023/06/27 14:00:33.426, True, 1.990, 0.127871
2023/06/27 14:00:33.922, True, 2.022, 0.126268
2023/06/27 14:00:34.426, True, 1.990, 0.125963
2023/06/27 14:00:34.930, True, 1.658, 0.124361
2023/06/27 14:00:35.426, True, 2.021, 0.127031
2023/06/27 14:00:35.930, True, 1.658, 0.125658
2023/06/27 14:00:36.434, True, 1.990, 0.126421
2023/06/27 14:00:36.930, True, 1.685, 0.127642
2023/06/27 14:00:37.434, True, 1.990, 0.127260
2023/06/27 14:00:37.938, True, 1.658, 0.128481
2023/06/27 14:00:38.434, True, 2.022, 0.127337
2023/06/27 14:00:38.938, True, 1.990, 0.129473
2023/06/27 14:00:39.442, True, 1.990, 0.129168
2023/06/27 14:00:39.938, True, 1.685, 0.131762
2023/06/27 14:00:40.441, True, 1.990, 0.129854
2023/06/27 14:00:40.946, True, 1.990, 0.130465
2023/06/27 14:00:41.442, True, 2.026, 0.130083
2023/06/27 14:00:41.945, True, 1.986, 0.130694
2023/06/27 14:00:42.442, True, 2.022, 0.132448
2023/06/27 14:00:42.946, True, 2.321, 0.131838
2023/06/27 14:00:43.450, True, 1.990, 0.132296
2023/06/27 14:00:43.945, True, 1.685, 0.131991
2023/06/27 14:00:44.449, True, 1.990, 0.134508
2023/06/27 14:00:44.954, True, 1.659, 0.132525
2023/06/27 14:00:45.450, True, 2.021, 0.131991
2023/06/27 14:00:45.954, True, 1.989, 0.131838
2023/06/27 14:00:46.458, True, 1.658, 0.134585
2023/06/27 14:00:46.954, True, 2.022, 0.133288
2023/06/27 14:00:47.458, True, 1.658, 0.135424
2023/06/27 14:00:47.962, True, 1.990, 0.133516
2023/06/27 14:00:48.458, True, 2.022, 0.133669
2023/06/27 14:00:48.962, True, 1.989, 0.136034
2023/06/27 14:00:49.466, True, 1.990, 0.133822
2023/06/27 14:00:49.962, True, 2.021, 0.134279
2023/06/27 14:00:50.466, True, 1.990, 0.134813
2023/06/27 14:00:50.970, True, 1.990, 0.135653
2023/06/27 14:00:51.466, True, 2.022, 0.134203
2023/06/27 14:00:51.970, True, 1.990, 0.135119
2023/06/27 14:00:52.474, True, 1.990, 0.132677
2023/06/27 14:00:52.970, True, 1.685, 0.134737
2023/06/27 14:00:53.474, True, 1.990, 0.135195
2023/06/27 14:00:53.978, True, 1.658, 0.131533
2023/06/27 14:00:54.474, True, 2.022, 0.134890
2023/06/27 14:00:54.978, True, 1.658, 0.134203
2023/06/27 14:00:55.482, True, 1.993, 0.134585
2023/06/27 14:00:55.978, True, 1.682, 0.135805
2023/06/27 14:00:56.482, True, 1.990, 0.135576
2023/06/27 14:00:56.986, True, 1.658, 0.136568
2023/06/27 14:00:57.482, True, 2.024, 0.135576
2023/06/27 14:00:57.986, True, 1.656, 0.135500
2023/06/27 14:00:58.490, True, 1.658, 0.136492
2023/06/27 14:00:58.986, True, 2.022, 0.134432
2023/06/27 14:00:59.490, True, 1.990, 0.135195
2023/06/27 14:00:59.994, True, 1.990, 0.135424
2023/06/27 14:01:00.490, True, 2.024, 0.135882
2023/06/27 14:01:00.994, True, 1.988, 0.135119
2023/06/27 14:01:01.498, True, 1.990, 0.134966
2023/06/27 14:01:01.994, True, 2.022, 0.135882
2023/06/27 14:01:02.498, True, 1.658, 0.135805
2023/06/27 14:01:03.002, True, 1.990, 0.133974
2023/06/27 14:01:03.498, True, 2.022, 0.134661
2023/06/27 14:01:04.002, True, 1.990, 0.137713
2023/06/27 14:01:04.506, True, 1.990, 0.136034
2023/06/27 14:01:05.002, True, 1.685, 0.135576
2023/06/27 14:01:05.506, True, 1.990, 0.134890
2023/06/27 14:01:06.001, True, 1.685, 0.137102
2023/06/27 14:01:06.505, True, 1.658, 0.133898
2023/06/27 14:01:07.010, True, 1.990, 0.134279
2023/06/27 14:01:07.506, True, 1.687, 0.135576
2023/06/27 14:01:08.010, True, 1.986, 0.135348
2023/06/27 14:01:08.514, True, 1.658, 0.135729
2023/06/27 14:01:09.017, True, 1.990, 0.135729
2023/06/27 14:01:09.513, True, 2.022, 0.136873
2023/06/27 14:01:10.017, True, 1.990, 0.135500
2023/06/27 14:01:10.514, True, 1.685, 0.135653
2023/06/27 14:01:11.018, True, 1.992, 0.133745
2023/06/27 14:01:11.521, True, 1.988, 0.134966
2023/06/27 14:01:12.018, True, 2.022, 0.135500
2023/06/27 14:01:12.522, True, 1.989, 0.135195
2023/06/27 14:01:13.026, True, 1.990, 0.134051
2023/06/27 14:01:13.522, True, 1.685, 0.135805
2023/06/27 14:01:14.026, True, 1.990, 0.136645
2023/06/27 14:01:14.530, True, 1.659, 0.134432
2023/06/27 14:01:15.026, True, 2.021, 0.136645
2023/06/27 14:01:15.530, True, 1.990, 0.135271
2023/06/27 14:01:16.034, True, 1.659, 0.136187
2023/06/27 14:01:16.530, True, 2.024, 0.136416
2023/06/27 14:01:17.034, True, 1.655, 0.136950
2023/06/27 14:01:17.537, True, 1.991, 0.134966
2023/06/27 14:01:18.034, True, 1.685, 0.132677
2023/06/27 14:01:18.538, True, 1.988, 0.134432
2023/06/27 14:01:19.042, True, 1.991, 0.134966
2023/06/27 14:01:19.538, True, 1.685, 0.136721
2023/06/27 14:01:20.042, True, 1.989, 0.135882
2023/06/27 14:01:20.546, True, 1.988, 0.135271
2023/06/27 14:01:21.042, True, 1.687, 0.134508
2023/06/27 14:01:21.546, True, 1.990, 0.132677
2023/06/27 14:01:22.042, True, 2.019, 0.135195
2023/06/27 14:01:22.546, True, 1.658, 0.135882
2023/06/27 14:01:23.050, True, 1.992, 0.133288
2023/06/27 14:01:23.546, True, 2.020, 0.135042
2023/06/27 14:01:24.050, True, 1.989, 0.135882
2023/06/27 14:01:24.554, True, 1.989, 0.134737
2023/06/27 14:01:25.050, True, 2.025, 0.136110
2023/06/27 14:01:25.554, True, 1.988, 0.134737
2023/06/27 14:01:26.058, True, 1.989, 0.134356
2023/06/27 14:01:26.554, True, 2.023, 0.133059
2023/06/27 14:01:27.058, True, 1.657, 0.132219
2023/06/27 14:01:27.562, True, 1.993, 0.134890
2023/06/27 14:01:28.058, True, 2.018, 0.134279
2023/06/27 14:01:28.562, True, 1.658, 0.135958
2023/06/27 14:01:29.066, True, 1.992, 0.135882
2023/06/27 14:01:29.562, True, 1.685, 0.136339
2023/06/27 14:01:30.066, True, 1.987, 0.134813
2023/06/27 14:01:30.570, True, 1.990, 0.135500
2023/06/27 14:01:31.074, True, 1.658, 0.132906
2023/06/27 14:01:31.570, True, 2.022, 0.132601
2023/06/27 14:01:32.074, True, 1.990, 0.133745
2023/06/27 14:01:32.578, True, 1.990, 0.134203
2023/06/27 14:01:33.074, True, 1.684, 0.135424
2023/06/27 14:01:33.578, True, 1.989, 0.134127
2023/06/27 14:01:34.082, True, 1.990, 0.133211
2023/06/27 14:01:34.578, True, 2.022, 0.133364
2023/06/27 14:01:35.082, True, 1.989, 0.133364
2023/06/27 14:01:35.585, True, 1.990, 0.133669
2023/06/27 14:01:36.082, True, 2.022, 0.135348
2023/06/27 14:01:36.586, True, 1.990, 0.133745
2023/06/27 14:01:37.090, True, 1.990, 0.136034
2023/06/27 14:01:37.586, True, 1.685, 0.133516
2023/06/27 14:01:38.090, True, 1.992, 0.134051
2023/06/27 14:01:38.594, True, 1.655, 0.134661
2023/06/27 14:01:39.090, True, 2.024, 0.136416
2023/06/27 14:01:39.594, True, 1.656, 0.133593
2023/06/27 14:01:40.098, True, 1.989, 0.136034
2023/06/27 14:01:40.594, True, 2.022, 0.136110
2023/06/27 14:01:41.098, True, 1.990, 0.134508
2023/06/27 14:01:41.602, True, 1.990, 0.135500
2023/06/27 14:01:42.098, True, 2.022, 0.135195
2023/06/27 14:01:42.602, True, 1.990, 0.133211
2023/06/27 14:01:43.106, True, 1.990, 0.134279
2023/06/27 14:01:43.602, True, 2.022, 0.136416
2023/06/27 14:01:44.106, True, 1.989, 0.132448
2023/06/27 14:01:44.610, True, 1.990, 0.135195
2023/06/27 14:01:45.106, True, 2.026, 0.134203
2023/06/27 14:01:45.610, True, 1.655, 0.133669
2023/06/27 14:01:46.114, True, 1.990, 0.131762
2023/06/27 14:01:46.609, True, 1.685, 0.133669
2023/06/27 14:01:47.114, True, 1.658, 0.133974
2023/06/27 14:01:47.609, True, 2.022, 0.135500
2023/06/27 14:01:48.114, True, 1.658, 0.134813
2023/06/27 14:01:48.618, True, 1.990, 0.132372
2023/06/27 14:01:49.114, True, 2.022, 0.134127
2023/06/27 14:01:49.618, True, 1.657, 0.134051
2023/06/27 14:01:50.122, True, 1.991, 0.132067
2023/06/27 14:01:50.625, True, 1.659, 0.132601
2023/06/27 14:01:51.122, True, 2.020, 0.131762
2023/06/27 14:01:51.626, True, 1.990, 0.133669
2023/06/27 14:01:52.130, True, 1.990, 0.135348
2023/06/27 14:01:52.626, True, 1.686, 0.132219
2023/06/27 14:01:53.130, True, 1.988, 0.131151
2023/06/27 14:01:53.625, True, 2.022, 0.132067
2023/06/27 14:01:54.129, True, 1.990, 0.132830
2023/06/27 14:01:54.634, True, 1.990, 0.134051
2023/06/27 14:01:55.130, True, 1.685, 0.133822
2023/06/27 14:01:55.634, True, 1.658, 0.133898
2023/06/27 14:01:56.137, True, 1.990, 0.135805
2023/06/27 14:01:56.633, True, 2.022, 0.133593
2023/06/27 14:01:57.137, True, 1.660, 0.134737
2023/06/27 14:01:57.642, True, 1.988, 0.133974
2023/06/27 14:01:58.138, True, 2.025, 0.133593
2023/06/27 14:01:58.641, True, 1.656, 0.133593
2023/06/27 14:01:59.138, True, 2.022, 0.131533
2023/06/27 14:01:59.642, True, 1.989, 0.134585
2023/06/27 14:02:00.146, True, 1.990, 0.133669
2023/06/27 14:02:00.650, True, 1.658, 0.130312
2023/06/27 14:02:01.146, True, 2.022, 0.132601
2023/06/27 14:02:01.649, True, 1.991, 0.134356
2023/06/27 14:02:02.154, True, 1.657, 0.130617
2023/06/27 14:02:02.649, True, 2.022, 0.132906
2023/06/27 14:02:03.153, True, 1.990, 0.132982
2023/06/27 14:02:03.658, True, 1.658, 0.132982
2023/06/27 14:02:04.154, True, 2.022, 0.133059
2023/06/27 14:02:04.657, True, 1.989, 0.131151
2023/06/27 14:02:05.162, True, 1.990, 0.132296
2023/06/27 14:02:05.658, True, 1.685, 0.131685
2023/06/27 14:02:06.162, True, 1.990, 0.131075
2023/06/27 14:02:06.658, True, 2.021, 0.133822
2023/06/27 14:02:07.162, True, 1.658, 0.132677
2023/06/27 14:02:07.666, True, 1.990, 0.130846
2023/06/27 14:02:08.170, True, 1.658, 0.133440
2023/06/27 14:02:08.666, True, 2.022, 0.131838
2023/06/27 14:02:09.170, True, 1.660, 0.132677
2023/06/27 14:02:09.666, True, 2.020, 0.132143
2023/06/27 14:02:10.170, True, 1.658, 0.131304
2023/06/27 14:02:10.673, True, 1.991, 0.132448
2023/06/27 14:02:11.178, True, 1.991, 0.133288
2023/06/27 14:02:11.674, True, 2.019, 0.132525
2023/06/27 14:02:12.178, True, 1.989, 0.134585
2023/06/27 14:02:12.674, True, 1.688, 0.130770
2023/06/27 14:02:13.178, True, 1.988, 0.132982
2023/06/27 14:02:13.682, True, 2.319, 0.131533
2023/06/27 14:02:14.178, True, 2.022, 0.132601
2023/06/27 14:02:14.682, True, 1.990, 0.131762
2023/06/27 14:02:15.185, True, 1.992, 0.133669
2023/06/27 14:02:15.682, True, 2.019, 0.130999
2023/06/27 14:02:16.186, True, 1.658, 0.131456
2023/06/27 14:02:16.690, True, 1.991, 0.131685
2023/06/27 14:02:17.186, True, 2.020, 0.130694
2023/06/27 14:02:17.690, True, 1.990, 0.132525
2023/06/27 14:02:18.193, True, 1.990, 0.134203
2023/06/27 14:02:18.690, True, 2.022, 0.132982
2023/06/27 14:02:19.194, True, 1.990, 0.130694
2023/06/27 14:02:19.697, True, 1.660, 0.131991
2023/06/27 14:02:20.194, True, 2.019, 0.130999
2023/06/27 14:02:20.698, True, 1.990, 0.130236
2023/06/27 14:02:21.194, True, 2.022, 0.133135
2023/06/27 14:02:21.698, True, 1.658, 0.130694
2023/06/27 14:02:22.202, True, 1.990, 0.131075
2023/06/27 14:02:22.706, True, 1.658, 0.130465
2023/06/27 14:02:23.202, True, 2.021, 0.131685
2023/06/27 14:02:23.706, True, 1.990, 0.131304
2023/06/27 14:02:24.202, True, 1.686, 0.131380
2023/06/27 14:02:24.705, True, 1.989, 0.131914
2023/06/27 14:02:25.210, True, 1.991, 0.131914
2023/06/27 14:02:25.706, True, 1.684, 0.130999
2023/06/27 14:02:26.210, True, 1.990, 0.131838
2023/06/27 14:02:26.714, True, 1.990, 0.131914
2023/06/27 14:02:27.210, True, 1.685, 0.129320
2023/06/27 14:02:27.714, True, 1.658, 0.133669
2023/06/27 14:02:28.218, True, 1.990, 0.131228
2023/06/27 14:02:28.714, True, 1.687, 0.132753
2023/06/27 14:02:29.218, True, 1.656, 0.131914
2023/06/27 14:02:29.722, True, 1.991, 0.133364
2023/06/27 14:02:30.218, True, 2.020, 0.131914
2023/06/27 14:02:30.722, True, 1.658, 0.132601
2023/06/27 14:02:31.218, True, 2.022, 0.133364
2023/06/27 14:02:31.722, True, 1.990, 0.131838
2023/06/27 14:02:32.226, True, 1.990, 0.129931
2023/06/27 14:02:32.722, True, 1.685, 0.130465
2023/06/27 14:02:33.226, True, 1.993, 0.133364
2023/06/27 14:02:33.730, True, 1.987, 0.130770
2023/06/27 14:02:34.234, True, 1.990, 0.131609
2023/06/27 14:02:34.730, True, 1.687, 0.131304
2023/06/27 14:02:35.234, True, 1.987, 0.131380
2023/06/27 14:02:35.738, True, 1.990, 0.132372
2023/06/27 14:02:36.233, True, 1.684, 0.131533
2023/06/27 14:02:36.738, True, 1.990, 0.132296
2023/06/27 14:02:37.242, True, 1.990, 0.131838
2023/06/27 14:02:37.738, True, 1.685, 0.131304
2023/06/27 14:02:38.242, True, 1.989, 0.131991
2023/06/27 14:02:38.746, True, 1.990, 0.130465
2023/06/27 14:02:39.242, True, 2.022, 0.130617
2023/06/27 14:02:39.746, True, 1.990, 0.132982
2023/06/27 14:02:40.250, True, 1.990, 0.132601
2023/06/27 14:02:40.746, True, 2.022, 0.130388
2023/06/27 14:02:41.250, True, 1.990, 0.129015
2023/06/27 14:02:41.754, True, 1.990, 0.133135
2023/06/27 14:02:42.250, True, 1.687, 0.131914
2023/06/27 14:02:42.753, True, 1.987, 0.129625
2023/06/27 14:02:43.258, True, 1.658, 0.131456
2023/06/27 14:02:43.754, True, 2.022, 0.131762
2023/06/27 14:02:44.257, True, 1.658, 0.131685
2023/06/27 14:02:44.761, True, 1.990, 0.131533
2023/06/27 14:02:45.258, True, 1.685, 0.132601
2023/06/27 14:02:45.762, True, 1.990, 0.133364
2023/06/27 14:02:46.265, True, 1.658, 0.132982
2023/06/27 14:02:46.770, True, 1.991, 0.131228
2023/06/27 14:02:47.266, True, 2.021, 0.133211
2023/06/27 14:02:47.769, True, 1.990, 0.129244
2023/06/27 14:02:48.273, True, 1.990, 0.132296
2023/06/27 14:02:48.770, True, 2.022, 0.130388
2023/06/27 14:02:49.274, True, 1.993, 0.130159
2023/06/27 14:02:49.778, True, 1.986, 0.130159
2023/06/27 14:02:50.273, True, 2.022, 0.129778
2023/06/27 14:02:50.778, True, 1.989, 0.130770
2023/06/27 14:02:51.282, True, 1.661, 0.131609
2023/06/27 14:02:51.778, True, 2.019, 0.132906
2023/06/27 14:02:52.282, True, 1.661, 0.131075
2023/06/27 14:02:52.786, True, 1.988, 0.129244
2023/06/27 14:02:53.282, True, 1.686, 0.129549
2023/06/27 14:02:53.786, True, 1.990, 0.128939
2023/06/27 14:02:54.289, True, 1.990, 0.129397
2023/06/27 14:02:54.786, True, 2.018, 0.129091
2023/06/27 14:02:55.290, True, 1.990, 0.130083
2023/06/27 14:02:55.794, True, 1.991, 0.129473
2023/06/27 14:02:56.290, True, 2.020, 0.130770
2023/06/27 14:02:56.794, True, 1.990, 0.130007
2023/06/27 14:02:57.298, True, 1.657, 0.132448
2023/06/27 14:02:57.794, True, 2.023, 0.131151
2023/06/27 14:02:58.298, True, 1.658, 0.128710
2023/06/27 14:02:58.802, True, 1.989, 0.130770
2023/06/27 14:02:59.297, True, 1.685, 0.129778
2023/06/27 14:02:59.802, True, 1.991, 0.129931
2023/06/27 14:03:00.306, True, 1.990, 0.130617
2023/06/27 14:03:00.802, True, 1.684, 0.130694
2023/06/27 14:03:01.306, True, 1.988, 0.130770
2023/06/27 14:03:01.801, True, 2.022, 0.128710
2023/06/27 14:03:02.306, True, 1.991, 0.128176
2023/06/27 14:03:02.810, True, 1.657, 0.131762
2023/06/27 14:03:03.305, True, 2.023, 0.131762
2023/06/27 14:03:03.810, True, 1.660, 0.129702
2023/06/27 14:03:04.314, True, 1.657, 0.129244
2023/06/27 14:03:04.810, True, 1.685, 0.130922
2023/06/27 14:03:05.314, True, 1.988, 0.129168
2023/06/27 14:03:05.818, True, 1.657, 0.127337
2023/06/27 14:03:06.322, True, 1.658, 0.131456
2023/06/27 14:03:06.818, True, 1.685, 0.131685
2023/06/27 14:03:07.322, True, 1.990, 0.132219
2023/06/27 14:03:07.818, True, 2.022, 0.130617
2023/06/27 14:03:08.322, True, 1.990, 0.131075
2023/06/27 14:03:08.825, True, 1.990, 0.131838
2023/06/27 14:03:09.322, True, 2.025, 0.131228
2023/06/27 14:03:09.826, True, 1.986, 0.128634
2023/06/27 14:03:10.329, True, 1.990, 0.130617
2023/06/27 14:03:10.834, True, 1.990, 0.130236
2023/06/27 14:03:11.330, True, 1.685, 0.130312
2023/06/27 14:03:11.834, True, 1.989, 0.130465
2023/06/27 14:03:12.338, True, 1.990, 0.129931
2023/06/27 14:03:12.834, True, 1.685, 0.129549
2023/06/27 14:03:13.338, True, 1.658, 0.129625
2023/06/27 14:03:13.833, True, 2.022, 0.130083
2023/06/27 14:03:14.338, True, 1.658, 0.131380
2023/06/27 14:03:14.842, True, 1.990, 0.131304
2023/06/27 14:03:15.346, True, 1.990, 0.129168
2023/06/27 14:03:15.841, True, 1.685, 0.128328
2023/06/27 14:03:16.346, True, 1.990, 0.130083
2023/06/27 14:03:16.849, True, 1.658, 0.130312
2023/06/27 14:03:17.346, True, 2.022, 0.129091
2023/06/27 14:03:17.850, True, 1.990, 0.129320
2023/06/27 14:03:18.353, True, 1.990, 0.129168
2023/06/27 14:03:18.850, True, 2.022, 0.130236
2023/06/27 14:03:19.354, True, 1.658, 0.131151
2023/06/27 14:03:19.858, True, 1.989, 0.130083
2023/06/27 14:03:20.354, True, 1.685, 0.129854
2023/06/27 14:03:20.858, True, 1.990, 0.130999
2023/06/27 14:03:21.362, True, 1.658, 0.127718
2023/06/27 14:03:21.858, True, 2.022, 0.130007
2023/06/27 14:03:22.362, True, 1.990, 0.130312
2023/06/27 14:03:22.866, True, 1.658, 0.129397
2023/06/27 14:03:23.362, True, 2.023, 0.130159
2023/06/27 14:03:23.865, True, 1.988, 0.129549
2023/06/27 14:03:24.362, True, 1.685, 0.128023
2023/06/27 14:03:24.865, True, 1.992, 0.129931
2023/06/27 14:03:25.369, True, 1.987, 0.131838
2023/06/27 14:03:25.873, True, 1.989, 0.131151
2023/06/27 14:03:26.370, True, 2.022, 0.127718
2023/06/27 14:03:26.874, True, 1.990, 0.129244
2023/06/27 14:03:27.378, True, 1.990, 0.130159
2023/06/27 14:03:27.874, True, 1.685, 0.129778
2023/06/27 14:03:28.378, True, 1.990, 0.131533
2023/06/27 14:03:28.882, True, 1.990, 0.128328
2023/06/27 14:03:29.378, True, 2.022, 0.128862
2023/06/27 14:03:29.882, True, 1.990, 0.128252
2023/06/27 14:03:30.378, True, 1.685, 0.130236
2023/06/27 14:03:30.881, True, 1.990, 0.128481
2023/06/27 14:03:31.386, True, 1.990, 0.131151
2023/06/27 14:03:31.881, True, 2.022, 0.130312
2023/06/27 14:03:32.386, True, 1.990, 0.127871
2023/06/27 14:03:32.889, True, 1.990, 0.129168
2023/06/27 14:03:33.394, True, 1.658, 0.129244
2023/06/27 14:03:33.890, True, 2.022, 0.127642
2023/06/27 14:03:34.394, True, 1.989, 0.129473
2023/06/27 14:03:34.898, True, 1.989, 0.131075
2023/06/27 14:03:35.394, True, 2.022, 0.129473
2023/06/27 14:03:35.898, True, 1.658, 0.128786
2023/06/27 14:03:36.401, True, 1.990, 0.128252
2023/06/27 14:03:36.898, True, 1.685, 0.128405
2023/06/27 14:03:37.401, True, 1.991, 0.131075
2023/06/27 14:03:37.906, True, 1.656, 0.130846
2023/06/27 14:03:38.402, True, 2.022, 0.129244
2023/06/27 14:03:38.906, True, 1.990, 0.128786
2023/06/27 14:03:39.409, True, 1.990, 0.130770
2023/06/27 14:03:39.906, True, 2.022, 0.128634
2023/06/27 14:03:40.410, True, 2.321, 0.128786
2023/06/27 14:03:40.905, True, 2.022, 0.130236
2023/06/27 14:03:41.410, True, 1.990, 0.129397
2023/06/27 14:03:41.914, True, 1.990, 0.129778
2023/06/27 14:03:42.410, True, 2.022, 0.128939
2023/06/27 14:03:42.914, True, 1.658, 0.129091
2023/06/27 14:03:43.418, True, 1.990, 0.129397
2023/06/27 14:03:43.914, True, 1.687, 0.129931
2023/06/27 14:03:44.417, True, 1.987, 0.130922
2023/06/27 14:03:44.922, True, 1.658, 0.128481
2023/06/27 14:03:45.417, True, 2.021, 0.128328
2023/06/27 14:03:45.922, True, 1.990, 0.128099
2023/06/27 14:03:46.425, True, 1.658, 0.129168
2023/06/27 14:03:46.922, True, 2.022, 0.127413
2023/06/27 14:03:47.425, True, 1.658, 0.131151
2023/06/27 14:03:47.930, True, 1.992, 0.126497
2023/06/27 14:03:48.426, True, 2.019, 0.126650
2023/06/27 14:03:48.930, True, 1.658, 0.129320
2023/06/27 14:03:49.426, True, 2.022, 0.129168
2023/06/27 14:03:49.929, True, 1.990, 0.128328
2023/06/27 14:03:50.433, True, 1.990, 0.128481
2023/06/27 14:03:50.929, True, 2.021, 0.131456
2023/06/27 14:03:51.433, True, 1.990, 0.127489
2023/06/27 14:03:51.937, True, 1.990, 0.130312
2023/06/27 14:03:52.433, True, 2.021, 0.129625
2023/06/27 14:03:52.937, True, 1.990, 0.128710
2023/06/27 14:03:53.441, True, 1.990, 0.130312
2023/06/27 14:03:53.937, True, 1.685, 0.130541
2023/06/27 14:03:54.441, True, 1.658, 0.129854
2023/06/27 14:03:54.945, True, 1.990, 0.129320
2023/06/27 14:03:55.441, True, 2.022, 0.128023
2023/06/27 14:03:55.945, True, 1.658, 0.129549
2023/06/27 14:03:56.449, True, 1.990, 0.127718
2023/06/27 14:03:56.953, True, 1.990, 0.130999
2023/06/27 14:03:57.449, True, 2.022, 0.129015
2023/06/27 14:03:57.953, True, 1.990, 0.127794
2023/06/27 14:03:58.457, True, 1.990, 0.125277
2023/06/27 14:03:58.953, True, 2.022, 0.130617
2023/06/27 14:03:59.457, True, 1.989, 0.129015
2023/06/27 14:03:59.961, True, 1.658, 0.128328
2023/06/27 14:04:00.457, True, 2.022, 0.127871
2023/06/27 14:04:00.961, True, 1.658, 0.129168
2023/06/27 14:04:01.457, True, 1.685, 0.127184
2023/06/27 14:04:01.961, True, 1.990, 0.129702
2023/06/27 14:04:02.465, True, 1.990, 0.126268
2023/06/27 14:04:02.961, True, 2.022, 0.127947
2023/06/27 14:04:03.465, True, 1.989, 0.127947
2023/06/27 14:04:03.969, True, 1.990, 0.127413
2023/06/27 14:04:04.465, True, 2.022, 0.128023
2023/06/27 14:04:04.969, True, 1.989, 0.127718
2023/06/27 14:04:05.473, True, 1.991, 0.128786
2023/06/27 14:04:05.977, True, 1.658, 0.129778
2023/06/27 14:04:06.473, True, 2.021, 0.129091
2023/06/27 14:04:06.977, True, 1.990, 0.127337
2023/06/27 14:04:07.481, True, 1.657, 0.128405
2023/06/27 14:04:07.977, True, 2.022, 0.128634
2023/06/27 14:04:08.481, True, 1.659, 0.129015
2023/06/27 14:04:08.985, True, 1.988, 0.128557
2023/06/27 14:04:09.481, True, 1.685, 0.128328
2023/06/27 14:04:09.985, True, 1.660, 0.130083
2023/06/27 14:04:10.489, True, 1.987, 0.129397
2023/06/27 14:04:10.985, True, 1.684, 0.128786
2023/06/27 14:04:11.490, True, 1.992, 0.130694
2023/06/27 14:04:11.993, True, 1.656, 0.127260
2023/06/27 14:04:12.489, True, 2.022, 0.128786